ATLAS 5 CENTAUR DEB, 44667

Orbit data source: Space-Track

ATLAS 5 CENTAUR DEB, 44667 is space debris in HEO originally from a launch on Wed, 17 Oct 2018 UTC launched from the Air Force Eastern Test Range (AFETR). Debris objects in space refer to the collection of defunct objects orbiting the Earth. Examples of debris include non-operational satellites, rocket bodies, and fragments generated from explosions, collisions, or faulty payload assembly.

Loading next visibility...
Identifier
44667, 2018-079AD
Orbit
HEO
Country
Flag of USUS
Related business
Flag of USUnited Launch Alliance/Lockheed Martin (US)
Manufacturer
ULA Decatur
Mission
Spacecraft
Bus & Motor
Unknown
Mass
Unknown
Launch date (UTC)
2018-10-17 (7 years ago)
Launch vehicle
Unknown
Launch site
Air Force Eastern Test Range (AFETR)
Object type
Payload
Rocket body
Debris
Shape & HBR
Unknown shape, 1.1 m
Radar Cross Section
RCS unknown

Expand to show TLE details & history
Last TLE update: 2 months ago

TLE from 2 months ago
0 ATLAS 5 CENTAUR DEB
1 44667U 18079AD  25249.07164141 -.00000151  00000-0  00000-0 0  9996
2 44667  13.2029  40.4815 4488204 307.5633  19.4455  1.90707590 12745
Epoch: 2025-09-06T01:43Z
TLE epoch observation values (Epoch: 2025-09-06T01:43:09.817Z)
Latitude
-0.00007°
Longitude
29.34646°
Altitude
10,821.434 km
Speed
5.643 km/s
True Right ascension
02h 42m 11s
True Declination
0° 00' 00"
Sunlit
Object was in daylight at epoch
Visualization orbit readout
Latitude
Unknown
Longitude
Unknown
Altitude
Unknown
Speed
Unknown
Apparent Right ascension
Unknown
Apparent Declination
Unknown
Sunlit
N/A
Visualization observer readout
Local Sidereal Time
16:25:46
Azimuth
Unknown
Elevation
Unknown
Doppler factor
Unknown
Orbital elements
Apogee altitude
33,420.734 km
Perigee altitude
8,762.681 km
Semi-major axis
27,469.845 km
Eccentricity
0.44882
Inclination
13.2029°
RAAN
40.4815°
Arg. of periapsis
307.5633°
True anomaly
52.33679°
Mean anomaly
19.4455°
Eccentric anomaly
33.72172°
Mean motion
0.47672 °/min
Orbital period
755.17 mins
BSTAR
0
Loading maneuver chart data...
Computing Atmospheric mass density...

Documentation

Showing up to 5 results
|